This demonstration page uses our WeatherBlox Daily Observations layout. Learn more.

Left ArrowRight Arrow

Hourly Observations for May 15, 2015

Temp ( °F °C ) Dew Point ( °F °C ) Humidity (%) Winds ( mph kmh ) Pressure ( in mb ) Visibility ( mi km ) Precip ( " mm )
12:58 am 00:58 Clear 52 11.2 52 11.1 99 99 SE 2 4 29.93 1014 10 16 0.00 0.00
1:58 am 01:58 Clear 51 10.8 51 10.7 99 99 ESE 3 6 29.94 1014 10 16 0.00 0.00
2:58 am 02:58 Clear 51 10.7 51 10.6 99 99 Calm 29.93 1014 10 16 0.00 0.00
3:58 am 03:58 Clear 49 9.7 49 9.5 99 99 ESE 3 6 29.92 1013 10 16 0.00 0.00
4:58 am 04:58 Clear 53 11.5 53 11.4 99 99 ESE 5 7 29.91 1013 10 16 0.00 0.00
5:08 am 05:08 Clear with Mist and Fog 54 12 54 12 100 100 E 3 6 29.91 1013 3 4 0.00 0.00
5:11 am 05:11 Clear with Mist and Fog 54 12 54 12 100 100 E 3 6 29.91 1013 2 3 0.00 0.00
5:17 am 05:17 Clear with Mist and Fog 52 11 52 11 100 100 E 5 7 29.91 1013 2 3 0.00 0.00
5:19 am 05:19 Clear with Mist and Fog 52 11 52 11 100 100 E 5 7 29.91 1013 3 5 0.00 0.00
5:58 am 05:58 Clear 51 10.5 51 10.3 99 99 E 2 4 29.91 1013 10 16 0.00 0.00
6:58 am 06:58 Sunny 54 12.1 53 11.9 99 99 ESE 3 6 29.95 1014 9 14 0.00 0.00
7:58 am 07:58 Sunny 56 13.4 56 13.4 100 100 ENE 5 7 29.93 1014 10 16 0.00 0.00
8:58 am 08:58 Sunny 60 15.5 60 15.5 100 100 E 6 9 29.94 1014 10 16 0.00 0.00
9:58 am 09:58 Sunny 64 17.6 64 17.6 100 100 SE 9 15 29.93 1014 10 16 0.00 0.00
10:53 am 10:53 Cloudy 63 17 63 17 100 100 SE 6 9 29.94 1014 10 16 0.00 0.00
10:58 am 10:58 Cloudy 64 17.5 62 16.5 94 94 ESE 6 9 29.97 1015 10 16 0.00 0.00
11:22 am 11:22 Mostly Cloudy with Light Rain 64 18 59 15 83 83 W 9 15 29.94 1014 10 16 0.00 0.00
11:32 am 11:32 Mostly Cloudy 64 18 61 16 88 88 NNW 5 7 29.94 1014 10 16 0.00 0.00
11:50 am 11:50 Partly Cloudy with Light Rain 66 19 61 16 83 83 NNE 5 7 29.94 1014 10 16 0.00 0.00
11:58 am 11:58 Partly Cloudy with Light Rain 66 18.8 61 16 84 84 NE 8 13 29.96 1014 10 16 0.00 0.03
12:22 pm 12:22 Sunny 64 18 61 16 88 88 NNW 6 9 29.91 1013 10 16 0.00 0.00
12:58 pm 12:58 Mostly Sunny 65 18.6 61 16.2 86 86 W 5 7 29.97 1015 10 16 0.01 0.25
1:47 pm 13:47 Partly Cloudy with Light Rain 64 18 63 17 94 94 NNE 6 9 29.88 1012 10 16 0.00 0.00
1:58 pm 13:58 Partly Cloudy with Light Rain 65 18.4 62 16.5 89 89 NNE 6 9 29.92 1013 10 16 0.00 0.03
2:08 pm 14:08 Sunny 64 18 63 17 94 94 E 8 13 29.88 1012 10 16 0.00 0.00
2:20 pm 14:20 Partly Cloudy with Light Rain 64 18 61 16 88 88 SSE 7 11 29.91 1013 10 16 0.00 0.00
2:37 pm 14:37 Partly Cloudy with Thunderstorms 64 18 63 17 94 94 SE 7 11 29.91 1013 8 13 0.00 0.00
2:52 pm 14:52 Mostly Cloudy with Rain and Scattered Storms 64 18 63 17 94 94 SE 9 15 29.91 1013 4 6 0.00 0.00
2:58 pm 14:58 Mostly Cloudy with Heavy Rain and Scattered Storms 64 17.6 62 16.8 95 95 SE 8 13 29.95 1014 4 6 0.07 1.78
3:55 pm 15:55 Mostly Sunny 64 18 61 16 88 88 ENE 10 17 29.85 1011 10 16 0.00 0.00
3:58 pm 15:58 Mostly Sunny 64 17.8 62 16.4 92 92 E 9 15 29.90 1013 10 16 0.13 3.30
4:13 pm 16:13 Partly Cloudy with Light Rain 64 18 61 16 88 88 E 9 15 29.85 1011 10 16 0.00 0.00
4:25 pm 16:25 Mostly Sunny 66 19 61 16 83 83 E 7 11 29.85 1011 10 16 0.00 0.00
4:58 pm 16:58 Partly Cloudy 67 19.2 61 16.1 82 82 E 10 17 29.88 1012 10 16 0.00 0.03
5:58 pm 17:58 Partly Cloudy 67 19.4 62 16.8 85 85 E 12 19 29.86 1011 10 16 0.00 0.00
6:58 pm 18:58 Mostly Cloudy 67 19.5 62 16.6 83 83 ESE 10 17 29.84 1011 10 16 0.00 0.00
7:58 pm 19:58 Cloudy 67 19.6 61 16.3 81 81 ESE 10 17 29.83 1010 10 16 0.00 0.00
8:58 pm 20:58 Mostly Cloudy 66 18.7 60 15.7 83 83 ESE 13 20 29.84 1011 10 16 0.00 0.00
9:58 pm 21:58 Mostly Cloudy 65 18.4 60 15.8 85 85 SE 9 15 29.85 1011 10 16 0.00 0.00
10:58 pm 22:58 Partly Cloudy 64 17.7 61 16.1 90 90 ESE 8 13 29.85 1011 10 16 0.00 0.00
11:58 pm 23:58 Partly Cloudy 64 17.5 62 16.4 93 93 ESE 8 13 29.84 1010 10 16 0.00 0.00

Powered by AerisWeather